| time (UTC) | temp F | wind direction | speed MPH | gust MPH | rain 1hr in | rain 24hr in | rain mn in | humidity % | barometer mb |
| 20260502151541 | 65 | 109 | 2.0 | 6.0 | 0.00 | 0.00 | 0.00 | 60 | 1019.7 |
| 20260502150536 | 65 | 90 | 3.0 | 9.0 | 0.00 | 0.00 | 0.00 | 62 | 1019.7 |
| 20260502130524 | 66 | 130 | 3.0 | 8.0 | 0.00 | 0.00 | 0.00 | 55 | 1021.0 |
| 20260502123604 | 69 | 81 | 3.0 | 7.0 | 0.00 | 0.00 | 0.00 | 45 | 1020.9 |
| 20260502122557 | 68 | 103 | 4.0 | 11.0 | 0.00 | 0.00 | 0.00 | 43 | 1020.9 |
| 20260502121547 | 67 | 67 | 4.0 | 9.0 | 0.00 | 0.00 | 0.00 | 49 | 1021.0 |
| 20260502120543 | 67 | 107 | 2.0 | 6.0 | 0.00 | 0.00 | 0.00 | 50 | 1021.0 |
| 20260502115536 | 67 | 87 | 4.0 | 11.0 | 0.00 | 0.00 | 0.00 | 55 | 1021.0 |
| 20260502114530 | 66 | 88 | 3.0 | 8.0 | 0.00 | 0.00 | 0.00 | 56 | 1021.1 |
| 20260502113526 | 66 | 79 | 1.0 | 6.0 | 0.00 | 0.00 | 0.00 | 58 | 1021.3 |
| 20260502112518 | 64 | 32 | 6.0 | 9.0 | 0.00 | 0.00 | 0.00 | 62 | 1021.4 |
| 20260502111611 | 65 | 74 | 1.0 | 4.0 | 0.00 | 0.00 | 0.00 | 59 | 1021.4 |
| 20260502110606 | 63 | 75 | 4.0 | 7.0 | 0.00 | 0.00 | 0.00 | 62 | 1021.6 |
| 20260502105559 | 63 | 84 | 4.0 | 9.0 | 0.00 | 0.00 | 0.00 | 63 | 1021.5 |
| 20260502104554 | 63 | 98 | 3.0 | 8.0 | 0.00 | 0.00 | 0.00 | 62 | 1021.8 |
| 20260502103550 | 62 | 90 | 4.0 | 7.0 | 0.00 | 0.00 | 0.00 | 63 | 1021.9 |
| 20260502102545 | 63 | 68 | 2.0 | 6.0 | 0.00 | 0.00 | 0.00 | 63 | 1022.1 |
| 20260502101540 | 63 | 84 | 2.0 | 7.0 | 0.00 | 0.00 | 0.00 | 63 | 1022.2 |
| 20260502100533 | 63 | 68 | 2.0 | 4.0 | 0.00 | 0.00 | 0.00 | 63 | 1022.2 |
| 20260502090601 | 61 | 11 | 2.0 | 6.0 | 0.00 | 0.00 | 0.00 | 66 | 1022.4 |
| 20260502070551 | 60 | 52 | 4.0 | 7.0 | 0.00 | 0.00 | 0.00 | 76 | 1022.3 |
| 20260502065626 | 59 | 81 | 4.0 | 7.0 | 0.00 | 0.00 | 0.00 | 77 | 1022.5 |
| 20260502064539 | 59 | 54 | 5.0 | 9.0 | 0.00 | 0.00 | 0.00 | 77 | 1022.5 |
| 20260502063533 | 59 | 81 | 5.0 | 8.0 | 0.00 | 0.00 | 0.00 | 77 | 1022.3 |
| 20260502062548 | 59 | 86 | 6.0 | 9.0 | 0.00 | 0.00 | 0.00 | 78 | 1022.2 |
| 20260502061521 | 59 | 52 | 2.0 | 6.0 | 0.00 | 0.00 | 0.00 | 78 | 1022.0 |
| 20260502060515 | 59 | 77 | 4.0 | 7.0 | 0.00 | 0.00 | 0.00 | 79 | 1022.2 |
| 20260502055611 | 59 | 67 | 4.0 | 8.0 | 0.00 | 0.00 | 0.00 | 78 | 1022.1 |
| 20260502054604 | 59 | 74 | 4.0 | 7.0 | 0.00 | 0.00 | 0.00 | 79 | 1022.1 |
| 20260502053600 | 59 | 64 | 2.0 | 6.0 | 0.00 | 0.00 | 0.00 | 79 | 1022.1 |
| 20260502052554 | 59 | 87 | 4.0 | 7.0 | 0.00 | 0.00 | 0.00 | 79 | 1022.1 |
| 20260502051549 | 59 | 77 | 5.0 | 9.0 | 0.00 | 0.00 | 0.00 | 80 | 1021.9 |
| 20260502050543 | 59 | 84 | 3.0 | 7.0 | 0.00 | 0.00 | 0.00 | 81 | 1021.9 |
| 20260502045539 | 59 | 84 | 5.0 | 9.0 | 0.00 | 0.00 | 0.00 | 82 | 1021.9 |
| 20260502044534 | 59 | 72 | 3.0 | 8.0 | 0.00 | 0.00 | 0.00 | 82 | 1022.0 |
| 20260502043529 | 59 | 64 | 5.0 | 9.0 | 0.00 | 0.00 | 0.00 | 81 | 1022.0 |
| 20260502042526 | 59 | 78 | 3.0 | 7.0 | 0.00 | 0.00 | 0.00 | 81 | 1021.9 |
| 20260502041519 | 59 | 57 | 5.0 | 7.0 | 0.00 | 0.00 | 0.00 | 81 | 1021.8 |
| 20260502040635 | 59 | 88 | 5.0 | 8.0 | 0.00 | 0.00 | 0.00 | 81 | 1021.8 |
| 20260502035607 | 59 | 76 | 2.0 | 8.0 | 0.00 | 0.00 | 0.00 | 81 | 1021.9 |
| 20260502034604 | 59 | 87 | 3.0 | 6.0 | 0.00 | 0.00 | 0.00 | 81 | 1021.8 |
| 20260502033557 | 59 | 75 | 2.0 | 6.0 | 0.00 | 0.00 | 0.00 | 81 | 1021.9 |
| 20260502032550 | 59 | 90 | 2.0 | 4.0 | 0.00 | 0.00 | 0.00 | 82 | 1021.9 |
| 20260502031544 | 59 | 94 | 4.0 | 8.0 | 0.00 | 0.00 | 0.00 | 82 | 1021.9 |
| 20260502030538 | 59 | 63 | 5.0 | 7.0 | 0.00 | 0.00 | 0.00 | 82 | 1021.9 |
| 20260502025532 | 60 | 72 | 5.0 | 8.0 | 0.00 | 0.00 | 0.00 | 82 | 1021.9 |
| 20260502024527 | 60 | 96 | 5.0 | 11.0 | 0.00 | 0.00 | 0.00 | 82 | 1022.0 |
| 20260502023522 | 60 | 52 | 3.0 | 6.0 | 0.00 | 0.00 | 0.00 | 82 | 1022.0 |
| 20260502022517 | 59 | 83 | 5.0 | 8.0 | 0.00 | 0.00 | 0.00 | 82 | 1022.0 |
| 20260502021614 | 59 | 67 | 2.0 | 4.0 | 0.00 | 0.00 | 0.00 | 82 | 1022.0 |
| 20260502020628 | 59 | 75 | 4.0 | 7.0 | 0.00 | 0.00 | 0.00 | 83 | 1022.1 |
| 20260502015643 | 59 | 53 | 4.0 | 8.0 | 0.00 | 0.00 | 0.00 | 82 | 1022.3 |
| 20260502014556 | 59 | 41 | 3.0 | 7.0 | 0.00 | 0.00 | 0.00 | 81 | 1022.3 |
| 20260502013550 | 59 | 20 | 3.0 | 6.0 | 0.00 | 0.00 | 0.00 | 82 | 1022.3 |
| 20260502012543 | 59 | 61 | 5.0 | 11.0 | 0.00 | 0.00 | 0.00 | 81 | 1022.1 |
| 20260502011537 | 59 | 45 | 4.0 | 8.0 | 0.00 | 0.00 | 0.00 | 80 | 1022.4 |
| 20260502010531 | 60 | 77 | 3.0 | 7.0 | 0.00 | 0.00 | 0.00 | 74 | 1022.5 |
| 20260502005525 | 60 | 79 | 2.0 | 6.0 | 0.00 | 0.00 | 0.00 | 71 | 1022.6 |
| 20260502004518 | 60 | 46 | 2.0 | 4.0 | 0.00 | 0.00 | 0.00 | 70 | 1022.7 |
| 20260502003614 | 60 | 52 | 3.0 | 6.0 | 0.00 | 0.00 | 0.00 | 70 | 1022.9 |
| 20260502002608 | 60 | 71 | 3.0 | 6.0 | 0.00 | 0.00 | 0.00 | 71 | 1022.9 |
| 20260502001603 | 60 | 57 | 5.0 | 8.0 | 0.00 | 0.00 | 0.00 | 71 | 1023.1 |
| 20260502000556 | 60 | 23 | 4.0 | 6.0 | 0.00 | 0.00 | 0.00 | 71 | 1023.1 |
| 20260501235549 | 60 | 63 | 3.0 | 7.0 | 0.00 | 0.00 | 0.00 | 71 | 1023.2 |
| 20260501234544 | 60 | 50 | 3.0 | 6.0 | 0.00 | 0.00 | 0.00 | 71 | 1023.4 |
| 20260501233539 | 60 | 63 | 4.0 | 7.0 | 0.00 | 0.00 | 0.00 | 72 | 1023.3 |
| 20260501232552 | 60 | 52 | 3.0 | 7.0 | 0.00 | 0.00 | 0.00 | 71 | 1023.4 |
| 20260501231527 | 60 | 68 | 3.0 | 8.0 | 0.00 | 0.00 | 0.00 | 72 | 1023.4 |
| 20260501230520 | 60 | 79 | 5.0 | 9.0 | 0.00 | 0.00 | 0.00 | 72 | 1023.4 |
| 20260501225614 | 60 | 70 | 4.0 | 8.0 | 0.00 | 0.00 | 0.00 | 71 | 1023.3 |
| 20260501224610 | 60 | 72 | 6.0 | 9.0 | 0.00 | 0.00 | 0.00 | 71 | 1023.1 |
| 20260501223626 | 60 | 47 | 6.0 | 11.0 | 0.00 | 0.00 | 0.00 | 71 | 1023.1 |
| 20260501222600 | 60 | 81 | 4.0 | 8.0 | 0.00 | 0.00 | 0.00 | 72 | 1023.2 |
| 20260501221553 | 60 | 59 | 6.0 | 11.0 | 0.00 | 0.00 | 0.00 | 73 | 1023.1 |
| 20260501220608 | 60 | 44 | 5.0 | 8.0 | 0.00 | 0.00 | 0.00 | 74 | 1023.1 |
| 20260501215537 | 60 | 63 | 3.0 | 7.0 | 0.00 | 0.00 | 0.00 | 76 | 1023.2 |
| 20260501214532 | 60 | 72 | 4.0 | 7.0 | 0.00 | 0.00 | 0.00 | 79 | 1023.2 |
| 20260501213526 | 60 | 60 | 2.0 | 4.0 | 0.00 | 0.00 | 0.00 | 81 | 1023.5 |
| 20260501212521 | 60 | 102 | 3.0 | 6.0 | 0.00 | 0.00 | 0.00 | 81 | 1023.2 |
| 20260501211617 | 60 | 91 | 3.0 | 7.0 | 0.00 | 0.00 | 0.00 | 80 | 1023.3 |
| 20260501210649 | 60 | 73 | 5.0 | 8.0 | 0.00 | 0.00 | 0.00 | 79 | 1023.2 |
| 20260501205601 | 60 | 90 | 4.0 | 9.0 | 0.00 | 0.00 | 0.00 | 78 | 1023.3 |
| 20260501204556 | 60 | 74 | 5.0 | 9.0 | 0.00 | 0.00 | 0.00 | 80 | 1023.2 |
| 20260501203550 | 60 | 108 | 3.0 | 7.0 | 0.00 | 0.00 | 0.00 | 82 | 1023.2 |
| 20260501202546 | 60 | 93 | 3.0 | 7.0 | 0.00 | 0.00 | 0.00 | 82 | 1023.2 |
| 20260501201540 | 60 | 102 | 3.0 | 8.0 | 0.00 | 0.00 | 0.00 | 83 | 1023.2 |
| 20260501200536 | 60 | 90 | 2.0 | 4.0 | 0.00 | 0.00 | 0.00 | 83 | 1023.0 |
| 20260501195529 | 60 | 122 | 2.0 | 4.0 | 0.00 | 0.00 | 0.00 | 83 | 1023.0 |
| 20260501194524 | 60 | 145 | 2.0 | 4.0 | 0.00 | 0.00 | 0.00 | 83 | 1022.8 |
| 20260501193519 | 60 | 114 | 3.0 | 9.0 | 0.00 | 0.00 | 0.00 | 82 | 1022.6 |
| 20260501192612 | 60 | 126 | 2.0 | 6.0 | 0.00 | 0.00 | 0.00 | 81 | 1022.6 |
| 20260501191604 | 60 | 161 | 2.0 | 7.0 | 0.00 | 0.00 | 0.00 | 82 | 1022.6 |
| 20260501190559 | 61 | 125 | 2.0 | 4.0 | 0.00 | 0.00 | 0.00 | 80 | 1022.4 |
| 20260501185551 | 61 | 127 | 3.0 | 9.0 | 0.00 | 0.00 | 0.00 | 80 | 1022.3 |
| 20260501184546 | 61 | 124 | 2.0 | 4.0 | 0.00 | 0.00 | 0.00 | 77 | 1022.2 |
| 20260501183539 | 62 | 76 | 2.0 | 4.0 | 0.00 | 0.00 | 0.00 | 76 | 1022.1 |
| 20260501182556 | 62 | 103 | 2.0 | 7.0 | 0.00 | 0.00 | 0.00 | 75 | 1021.8 |
| 20260501181529 | 63 | 135 | 1.0 | 4.0 | 0.00 | 0.00 | 0.00 | 73 | 1021.7 |
| 20260501180524 | 63 | 121 | 2.0 | 4.0 | 0.00 | 0.00 | 0.00 | 72 | 1021.6 |
| 20260501175518 | 63 | 125 | 2.0 | 6.0 | 0.00 | 0.00 | 0.00 | 71 | 1021.5 |
| 20260501174613 | 64 | 133 | 1.0 | 7.0 | 0.00 | 0.00 | 0.00 | 70 | 1021.3 |
| 20260501173628 | 64 | 109 | 3.0 | 7.0 | 0.00 | 0.00 | 0.00 | 68 | 1021.2 |
| 20260501172602 | 64 | 99 | 2.0 | 8.0 | 0.00 | 0.00 | 0.00 | 67 | 1021.1 |
| 20260501171555 | 64 | 80 | 3.0 | 7.0 | 0.00 | 0.00 | 0.00 | 66 | 1021.3 |
| 20260501170611 | 65 | 88 | 3.0 | 11.0 | 0.00 | 0.00 | 0.00 | 64 | 1021.3 |
| 20260501165604 | 65 | 102 | 5.0 | 11.0 | 0.00 | 0.00 | 0.00 | 63 | 1021.1 |
| 20260501164557 | 66 | 87 | 4.0 | 11.0 | 0.00 | 0.00 | 0.00 | 60 | 1020.9 |
| 20260501163532 | 66 | 104 | 5.0 | 11.0 | 0.00 | 0.00 | 0.00 | 59 | 1020.9 |
| 20260501162525 | 66 | 110 | 3.0 | 8.0 | 0.00 | 0.00 | 0.00 | 58 | 1020.9 |
| 20260501161522 | 66 | 96 | 4.0 | 8.0 | 0.00 | 0.00 | 0.00 | 59 | 1021.0 |
| 20260501160515 | 66 | 104 | 6.0 | 11.0 | 0.00 | 0.00 | 0.00 | 58 | 1020.9 |